This demonstration page uses our WeatherBlox Daily Observations layout. Learn more.

Left ArrowRight Arrow

39.08367, -84.50855

Hourly Observations for April 13, 2019

Temp ( °F °C ) Dew Point ( °F °C ) Humidity (%) Winds ( mph kmh ) Pressure ( in mb ) Visibility ( mi km ) Precip ( " mm )
12:53 am 00:53 Clear 49 9.4 42 5.6 77 77 W 3 6 30.06 1018 10 16.0934 0 0
1:53 am 01:53 Clear 50 10 43 6.1 77 77 Calm 30.07 1018 10 16.0934 0 0
2:53 am 02:53 Clear 48 8.9 44 6.7 86 86 Calm 30.06 1018 10 16.0934 0 0
3:53 am 03:53 Clear 45 7.2 42 5.6 90 90 S 3 6 30.09 1019 10 16.0934 0 0
4:53 am 04:53 Clear 44 6.7 41 5 89 89 Calm 30.09 1019 10 16.0934 0 0
5:53 am 05:53 Clear with Mist and Fog 41 5 39 3.9 93 93 Calm 30.1 1019 4 6.43736 0 0
6:53 am 06:53 Clear 42 5.6 40 4.4 92 92 Calm 30.11 1020 10 16.0934 0 0
7:53 am 07:53 Sunny 42 5.6 41 5 96 96 Calm 30.14 1021 10 16.0934 0 0
8:53 am 08:53 Sunny 46 7.8 43 6.1 89 89 Calm 30.15 1021 10 16.0934 0 0
9:53 am 09:53 Sunny 52 11.1 47 8.3 83 83 Calm 30.14 1021 10 16.0934 0 0
10:53 am 10:53 Sunny 57 13.9 36 2.2 45 45 NNE 3 6 30.14 1021 10 16.0934 0 0
11:53 am 11:53 Sunny 59 15 36 2.2 42 42 ENE 5 7 30.15 1021 10 16.0934 0 0
12:53 pm 12:53 Sunny 61 16.1 35 1.7 38 38 E 5 7 30.13 1020 10 16.0934 0 0
1:53 pm 13:53 Sunny 62 16.7 36 2.2 38 38 Calm 30.11 1020 10 16.0934 0 0
2:53 pm 14:53 Sunny 65 18.3 35 1.7 33 33 Calm 30.08 1019 10 16.0934 0 0
3:53 pm 15:53 Sunny 67 19.4 36 2.2 32 32 Calm 30.06 1018 10 16.0934 0 0
4:53 pm 16:53 Cloudy 68 20 34 1.1 28 28 Calm 30.02 1017 10 16.0934 0 0
5:53 pm 17:53 Cloudy 67 19.4 37 2.8 33 33 E 3 6 30 1016 10 16.0934 0 0
6:53 pm 18:53 Mostly Cloudy 65 18.3 39 3.9 39 39 E 6 9 29.98 1015 10 16.0934 0 0
7:53 pm 19:53 Mostly Cloudy 63 17.2 39 3.9 41 41 NE 6 9 29.97 1015 10 16.0934 0 0
8:53 pm 20:53 Mostly Cloudy 60 15.6 43 6.1 53 53 ENE 6 9 29.96 1015 10 16.0934 0 0
9:53 pm 21:53 Mostly Cloudy 60 15.6 41 5 50 50 NNE 3 6 29.96 1014 10 16.0934 0 0
10:53 pm 22:53 Cloudy 58 14.4 47 8.3 67 67 ENE 6 9 29.95 1014 10 16.0934 0 0.0254
11:53 pm 23:53 Cloudy with Light Rain 56 13.3 46 7.8 70 70 Calm 29.97 1015 10 16.0934 0 0.0254

Powered by AerisWeather